Location: Prague
(50.0833°N, 14.4667°E)
Time: 19:26:37
(UTC+02:00)

ISS - Pass Details

Date: 30 May 2024
Orbit: 410 x 421 km, 51.6° (Epoch: 12 June)

Event Time Altitude Azimuth Distance (km) Brightness Sun altitude
Rises 16:40:13 0° 266° (W) 2,376 1.0 38.8°
Reaches altitude 10° 16:42:20 10° 269° (W) 1,511 0.3 38.5°
Maximum altitude 16:45:43 68° 353° (N) 459 -3.0 37.9°
Drops below altitude 10° 16:49:06 10° 78° (ENE) 1,510 -1.3 37.4°
Sets 16:51:12 0° 81° (E) 2,373 -0.4 37.1°
